Weather History for Mammoth, CA

Change the Weather History Date:

Saturday, September 7, 2013

  Actual Average Record
Temperature  
Mean Temperature 58 °F -  
Max Temperature 80 °F 71 °F 82 °F (2001)
Min Temperature 37 °F 55 °F 35 °F (2011)
Degree Days  
Heating Degree Days 6    
Growing Degree Days 8 (Base 50)    
Moisture  
Dew Point 27 °F    
Average Humidity 33    
Maximum Humidity 75    
Minimum Humidity 10    
Precipitation  
Precipitation 0.00 in - - ()
Sea Level Pressure  
Sea Level Pressure 30.24 in    
Wind  
Wind Speed 5 mph (WNW)    
Max Wind Speed 25 mph    
Max Gust Speed 33 mph    
Visibility 10 miles    
Events      
Averages and records for this station are not official NWS values.
T = Trace of Precipitation, MM = Missing Value Source: NWS Daily Summary

Daily Weather History Graph

Daily Weather History Graph

Search for Another Location

Airport:

Trip Planner

Search our weather history database for the weather conditions in past years. The results will help you decide how hot, cold, wet, or windy it might be!

Date:

Astronomy

Sep. 07, 2013 Rise Set
Actual Time 6:30 AM PDT 7:14 PM PDT
Civil Twilight 6:04 AM PDT 7:41 PM PDT
Nautical Twilight 5:32 AM PDT 8:12 PM PDT
Astronomical Twilight 5:00 AM PDT 8:44 PM PDT
Moon 8:46 AM PDT (9/7) 8:20 PM PDT (9/7)
Length of Visible Light 13h 37m
Length of Day
12h 44m
Waxing Crescent, 6% of the Moon is Illuminated
Sep 7
Waxing Crescent
Sep 12
First Quarter
Sep 19
Full
Sep 26
Last Quarter
Oct 4
New

Hourly Weather History & Observations

Time (PDT) Temp. Windchill Dew Point Humidity Pressure Visibility Wind Dir Wind Speed Gust Speed Precip Events Conditions
12:15 AM 50.0 °F - 33.8 °F 54% 30.27 in 10.0 mi Calm Calm - N/A   Clear
12:35 AM 46.4 °F - 33.8 °F 62% 30.27 in 10.0 mi Calm Calm - N/A   Clear
12:55 AM 48.2 °F - 33.8 °F 58% 30.27 in 10.0 mi NNW 3.5 mph - N/A   Clear
1:15 AM 50.0 °F - 32.0 °F 50% 30.27 in 10.0 mi Calm Calm - N/A   Clear
1:35 AM 46.4 °F - 33.8 °F 62% 30.27 in 10.0 mi Calm Calm - N/A   Clear
1:55 AM 44.6 °F - 33.8 °F 66% 30.27 in 10.0 mi Calm Calm - N/A   Clear
2:15 AM 46.4 °F - 33.8 °F 62% 30.27 in 10.0 mi Calm Calm - N/A   Clear
2:35 AM 46.4 °F 45.2 °F 32.0 °F 57% 30.26 in 10.0 mi North 3.5 mph - N/A   Clear
2:55 AM 46.4 °F 45.2 °F 32.0 °F 57% 30.26 in 10.0 mi North 3.5 mph - N/A   Clear
3:15 AM 46.4 °F 45.2 °F 32.0 °F 57% 30.26 in 10.0 mi North 3.5 mph - N/A   Clear
3:35 AM 46.4 °F - 32.0 °F 57% 30.25 in 10.0 mi Calm Calm - N/A   Clear
3:55 AM 46.4 °F 42.9 °F 30.2 °F 53% 30.25 in 10.0 mi NW 6.9 mph - N/A   Clear
4:15 AM 44.6 °F 42.2 °F 30.2 °F 57% 30.25 in 10.0 mi NW 4.6 mph - N/A   Clear
4:35 AM 44.6 °F - 30.2 °F 57% 30.25 in 10.0 mi Calm Calm - N/A   Clear
4:55 AM 44.6 °F 43.1 °F 28.4 °F 53% 30.25 in 10.0 mi NNW 3.5 mph - N/A   Clear
5:15 AM 42.8 °F 41.1 °F 28.4 °F 57% 30.25 in 10.0 mi NNW 3.5 mph - N/A   Clear
5:35 AM 42.8 °F - 28.4 °F 57% 30.25 in 10.0 mi Calm Calm - N/A   Clear
5:55 AM 42.8 °F 41.1 °F 28.4 °F 57% 30.25 in 10.0 mi NNE 3.5 mph - N/A   Clear
6:15 AM 39.2 °F 37.0 °F 30.2 °F 70% 30.25 in 10.0 mi NNW 3.5 mph - N/A   Clear
6:35 AM 42.8 °F - 32.0 °F 66% 30.26 in 10.0 mi Calm Calm - N/A   Clear
6:55 AM 39.2 °F 37.0 °F 30.2 °F 70% 30.26 in 10.0 mi NNW 3.5 mph - N/A   Clear
7:15 AM 37.4 °F 30.8 °F 30.2 °F 75% 30.27 in 10.0 mi NNW 9.2 mph - N/A   Clear
7:35 AM 44.6 °F - 30.2 °F 57% 30.27 in 10.0 mi Calm Calm - N/A   Clear
7:55 AM 50.0 °F - 32.0 °F 50% 30.27 in 10.0 mi Calm Calm - N/A   Clear
8:15 AM 53.6 °F - 32.0 °F 44% 30.27 in 10.0 mi Calm Calm - N/A   Clear
8:35 AM 59.0 °F - 32.0 °F 36% 30.27 in 10.0 mi Calm Calm - N/A   Clear
8:55 AM 62.6 °F - 33.8 °F 34% 30.27 in 10.0 mi SE 4.6 mph - N/A   Clear
9:15 AM 64.4 °F - 33.8 °F 32% 30.27 in 10.0 mi SE 3.5 mph - N/A   Clear
9:35 AM 66.2 °F - 32.0 °F 28% 30.28 in 10.0 mi SSE 3.5 mph - N/A   Clear
9:55 AM 68.0 °F - 30.2 °F 24% 30.27 in 10.0 mi SE 4.6 mph - N/A   Clear
10:15 AM 71.6 °F - 30.2 °F 22% 30.27 in 10.0 mi ENE 4.6 mph - N/A   Clear
10:35 AM 73.4 °F - 28.4 °F 19% 30.27 in 10.0 mi ESE 8.1 mph - N/A   Clear
10:55 AM 73.4 °F - 30.2 °F 20% 30.27 in 10.0 mi SE 5.8 mph - N/A   Clear
11:15 AM 75.2 °F - 28.4 °F 18% 30.27 in 10.0 mi SE 6.9 mph - N/A   Clear
11:35 AM 75.2 °F - 26.6 °F 17% 30.26 in 10.0 mi SE 8.1 mph - N/A   Clear
11:55 AM 77.0 °F - 24.8 °F 14% 30.26 in 10.0 mi ESE 5.8 mph - N/A   Clear
12:15 PM 78.8 °F - 28.4 °F 16% 30.25 in 10.0 mi ESE 8.1 mph 19.6 mph N/A   Clear
12:35 PM 78.8 °F - 26.6 °F 15% 30.24 in 10.0 mi SE 6.9 mph - N/A   Clear
12:55 PM 78.8 °F - 26.6 °F 15% 30.24 in 10.0 mi ESE 8.1 mph - N/A   Clear
1:15 PM 78.8 °F - 24.8 °F 14% 30.24 in 10.0 mi SE 6.9 mph - N/A   Clear
1:35 PM 80.6 °F - 23.0 °F 12% 30.22 in 10.0 mi East 9.2 mph - N/A   Clear
1:55 PM 80.6 °F - 19.4 °F 10% 30.23 in 10.0 mi South 9.2 mph 20.7 mph N/A   Clear
2:15 PM 80.6 °F - 23.0 °F 12% 30.22 in 10.0 mi West 18.4 mph 25.3 mph N/A   Clear
2:35 PM 80.6 °F - 21.2 °F 11% 30.22 in 10.0 mi West 13.8 mph 33.4 mph N/A   Clear
2:55 PM 80.6 °F - 19.4 °F 10% 30.21 in 10.0 mi West 25.3 mph 29.9 mph N/A   Clear
3:15 PM 80.6 °F - 19.4 °F 10% 30.22 in 10.0 mi West 24.2 mph 28.8 mph N/A   Clear
3:35 PM 80.6 °F - 21.2 °F 11% 30.21 in 10.0 mi WNW 20.7 mph 28.8 mph N/A   Clear
3:55 PM 78.8 °F - 21.2 °F 12% 30.21 in 10.0 mi West 19.6 mph 26.5 mph N/A   Clear
4:15 PM 78.8 °F - 23.0 °F 13% 30.21 in 10.0 mi West 12.7 mph 26.5 mph N/A   Clear
4:35 PM 78.8 °F - 23.0 °F 13% 30.21 in 10.0 mi West 20.7 mph 29.9 mph N/A   Clear
4:55 PM 78.8 °F - 21.2 °F 12% 30.21 in 10.0 mi WNW 20.7 mph 26.5 mph N/A   Clear
5:15 PM 77.0 °F - 23.0 °F 13% 30.20 in 10.0 mi WNW 18.4 mph 24.2 mph N/A   Clear
5:35 PM 77.0 °F - 23.0 °F 13% 30.20 in 10.0 mi West 18.4 mph 23.0 mph N/A   Clear
5:55 PM 77.0 °F - 23.0 °F 13% 30.20 in 10.0 mi West 17.3 mph 24.2 mph N/A   Clear
6:15 PM 75.2 °F - 21.2 °F 13% 30.20 in 10.0 mi West 10.4 mph 18.4 mph N/A   Clear
6:35 PM 75.2 °F - 21.2 °F 13% 30.20 in 10.0 mi SW 5.8 mph - N/A   Clear
6:55 PM 73.4 °F - 21.2 °F 14% 30.20 in 10.0 mi SW 8.1 mph - N/A   Clear
7:15 PM 69.8 °F - 23.0 °F 17% 30.20 in 10.0 mi West 11.5 mph 17.3 mph N/A   Clear
7:35 PM 68.0 °F - 23.0 °F 18% 30.21 in 10.0 mi WNW 10.4 mph - N/A   Clear
7:55 PM 68.0 °F - 23.0 °F 18% 30.21 in 10.0 mi West 9.2 mph - N/A   Clear
8:15 PM 66.2 °F - 23.0 °F 19% 30.21 in 10.0 mi West 6.9 mph - N/A   Clear
8:35 PM 66.2 °F - 23.0 °F 19% 30.22 in 10.0 mi Calm Calm - N/A   Clear
8:55 PM 64.4 °F - 23.0 °F 21% 30.23 in 10.0 mi Calm Calm - N/A   Clear
9:15 PM 64.4 °F - 24.8 °F 22% 30.23 in 10.0 mi South 9.2 mph - N/A   Clear
9:35 PM 62.6 °F - 26.6 °F 26% 30.24 in 10.0 mi ENE 3.5 mph - N/A   Clear
9:55 PM 60.8 °F - 26.6 °F 27% 30.24 in 10.0 mi ENE 4.6 mph - N/A   Clear
10:15 PM 60.8 °F - 26.6 °F 27% 30.25 in 10.0 mi Calm Calm - N/A   Clear
10:35 PM 59.0 °F - 28.4 °F 31% 30.25 in 10.0 mi Calm Calm - N/A   Clear
10:55 PM 57.2 °F - 26.6 °F 31% 30.25 in 10.0 mi Calm Calm - N/A   Clear
11:15 PM 55.4 °F - 26.6 °F 33% 30.25 in 10.0 mi Calm Calm - N/A   Clear
11:35 PM 55.4 °F - 26.6 °F 33% 30.25 in 10.0 mi Calm Calm - N/A   Clear
11:55 PM 51.8 °F - 24.8 °F 35% 30.25 in 10.0 mi Calm Calm - N/A   Clear